sat.trackr.live / text

‹ back to catalog

KUIPER-00299

NORAD 68864 · 2026-095A

PAYLOAD ACTIVE UNKNOWN

§ Identity

Operator
Country
US
Launch date
2026-04-28
Launch site
AFETR
Launch vehicle
Mass (kg)
RCS (m²)

External: N2YO · Heavens-Above · Gunter

§ Orbital elements

Epoch: 2026-09-18T12:36:33.523200Z

Period
97.30 min
Inclination
51.9000°
Eccentricity
0.0001203
Mean motion
14.79912269 rev/d
Perigee alt
628.8 km
Apogee alt
630.4 km
Semi-major
7,007.7 km
B*
9.6823e-4
RAAN
197.8905°
Arg perigee
102.1023°
Mean anomaly
258.0074°
Rev number
2,143

§ Raw data

KUIPER-002991 68864U 26095A   26261.52538800  .00007164  00000+0  96823-3 0  99902 68864  51.9000 197.8905 0001203 102.1023 258.0074 14.79912269 21439

JSON: /api/v1/satellites/68864 · /tle

For live sub-satellite position, see the globe view (requires WebGL).

§ Visibility from observer

Set your observer location to see the next 7 days of passes ≥ 10°. The values pass through the URL so the page stays shareable.

No JS? Fill the form by hand. The geolocation button needs JavaScript.